Warrenton, OR

4:39 PM PDT on September 29, 2016 (GMT -0700)
Astoria Regional

Weather History for KAST - February, 2012

Change the Weather History Date:

Wednesday, February 22, 2012

  Actual Average Record
Temperature  
Mean Temperature 46 °F 45 °F  
Max Temperature 50 °F 52 °F 67 °F (1908)
Min Temperature 42 °F 37 °F 29 °F (1988)
Degree Days  
Heating Degree Days 19 20  
Month to date heating degree days 428 460  
Since 1 July heating degree days 3305 3225  
Cooling Degree Days 0 0  
Month to date cooling degree days 0 0  
Year to date cooling degree days 0 0  
Moisture  
Dew Point 45 °F    
Average Humidity 86    
Maximum Humidity 100    
Minimum Humidity 71    
Precipitation  
Precipitation 0.62 in 0.25 in 1.97 in (1933)
Month to date precipitation 5.15 5.68  
Year to date precipitation 15.95 15.88  
Snow  
Snow 0.00 in - - ()
Month to date snowfall 0.0  
Snow Depth 0.00 in    
Sea Level Pressure  
Sea Level Pressure 30.23 in    
Wind  
Wind Speed 14 mph (WSW)    
Max Wind Speed 25 mph    
Max Gust Speed 36 mph    
Visibility 6 miles    
Events Rain    
T = Trace of Precipitation, MM = Missing Value Source: NWS Daily Summary

Daily Weather History Graph

Daily Weather History Graph

Search for Another Location

Airport or City:

Trip Planner

Search our weather history database for the weather conditions in past years. The results will help you decide how hot, cold, wet, or windy it might be!

Date:

Astronomy

Feb. 22, 2012 Rise Set
Actual Time 7:07 AM PST 5:51 PM PST
Civil Twilight 6:37 AM PST 6:21 PM PST
Nautical Twilight 6:02 AM PST 6:56 PM PST
Astronomical Twilight 5:27 AM PST 7:31 PM PST
Moon 7:02 AM PST (2/22) 7:11 PM PST (2/22)
Length of Visible Light 11h 44m
Length of Day
10h 43m
New Moon, 1% of the Moon is Illuminated
Feb 22
New Moon
Feb 29
First Quarter
Mar 8
Full
Mar 14
Last Quarter
Mar 22
New

Hourly Weather History & Observations

Time (PST) Temp. Windchill Dew Point Humidity Pressure Visibility Wind Dir Wind Speed Gust Speed Precip Events Conditions
12:17 AM 48.2 °F - 48.2 °F 100% 30.18 in 3.0 mi SSW 19.6 mph 34.5 mph 0.01 in Rain Light Rain
12:33 AM 48.2 °F - 48.2 °F 100% 30.17 in 1.8 mi SSW 20.7 mph 32.2 mph 0.01 in Rain Light Rain
12:45 AM 48.2 °F - 48.2 °F 100% 30.18 in 1.2 mi SSW 17.3 mph 32.2 mph 0.02 in   Overcast
12:55 AM 48.9 °F - 48.0 °F 97% 30.17 in 1.5 mi SSW 23.0 mph 35.7 mph 0.02 in Rain Light Rain
1:17 AM 48.2 °F - 48.2 °F 100% 30.16 in 1.2 mi SSW 17.3 mph 26.5 mph 0.01 in Rain Light Rain
1:24 AM 48.2 °F - 48.2 °F 100% 30.16 in 1.5 mi SSW 18.4 mph 27.6 mph 0.01 in Rain Light Rain
1:41 AM 48.2 °F - 48.2 °F 100% 30.14 in 1.2 mi SSW 23.0 mph 33.4 mph 0.02 in   Overcast
1:55 AM 48.9 °F - 48.0 °F 97% 30.15 in 1.8 mi SW 23.0 mph 32.2 mph 0.05 in Rain Light Rain
2:07 AM 48.2 °F - 48.2 °F 100% 30.17 in 2.0 mi SW 17.3 mph 34.5 mph 0.01 in Rain Rain
2:17 AM 48.2 °F - 48.2 °F 100% 30.16 in 1.5 mi SW 18.4 mph 28.8 mph 0.05 in Rain Rain
2:41 AM 48.2 °F - 48.2 °F 100% 30.15 in 2.0 mi SW 16.1 mph 26.5 mph 0.16 in Rain Rain
2:55 AM 48.9 °F - 48.0 °F 97% 30.15 in 2.5 mi SW 18.4 mph 29.9 mph 0.20 in Rain Rain
3:13 AM 48.2 °F - 48.2 °F 100% 30.14 in 3.0 mi SW 17.3 mph 25.3 mph 0.08 in Rain Rain
3:36 AM 48.2 °F - 48.2 °F 100% 30.16 in 2.5 mi WSW 17.3 mph 26.5 mph 0.18 in Rain Heavy Rain
3:51 AM 48.2 °F - 48.2 °F 100% 30.15 in 3.0 mi WSW 17.3 mph 24.2 mph 0.25 in Rain Rain
3:55 AM 48.9 °F - 48.0 °F 97% 30.15 in 3.0 mi WSW 17.3 mph 24.2 mph 0.26 in Rain Rain
4:19 AM 48.2 °F - 48.2 °F 100% 30.16 in 2.0 mi WSW 16.1 mph 28.8 mph 0.04 in Rain Light Rain
4:30 AM 48.2 °F - 48.2 °F 100% 30.16 in 1.5 mi WSW 21.9 mph 28.8 mph 0.05 in   Overcast
4:55 AM 48.9 °F - 48.0 °F 97% 30.15 in 3.0 mi WSW 19.6 mph 28.8 mph 0.07 in Rain Light Rain
5:04 AM 48.2 °F - 48.2 °F 100% 30.15 in 2.5 mi WSW 18.4 mph 26.5 mph 0.00 in Rain Light Rain
5:11 AM 48.2 °F - 48.2 °F 100% 30.14 in 4.0 mi WSW 18.4 mph 26.5 mph 0.00 in Rain Light Rain
5:41 AM 48.2 °F - 48.2 °F 100% 30.17 in 4.0 mi West 18.4 mph 25.3 mph 0.00 in Rain Light Rain
5:55 AM 48.0 °F - 48.0 °F 100% 30.17 in 9.0 mi West 20.7 mph 27.6 mph 0.00 in Rain Light Rain
6:10 AM 48.2 °F - 48.2 °F 100% 30.17 in 10.0 mi West 16.1 mph 26.5 mph N/A   Overcast
6:55 AM 48.0 °F - 46.9 °F 96% 30.19 in 2.5 mi West 18.4 mph 23.0 mph 0.00 in Rain Light Rain
7:11 AM 46.4 °F 40.4 °F 46.4 °F 100% 30.20 in 6.0 mi NW 13.8 mph - 0.01 in Rain Light Rain
7:37 AM 46.4 °F 41.9 °F 44.6 °F 93% 30.21 in 10.0 mi West 9.2 mph - 0.01 in   Overcast
7:45 AM 46.4 °F 42.4 °F 44.6 °F 93% 30.21 in 10.0 mi West 8.1 mph - 0.01 in   Overcast
7:55 AM 45.0 °F 40.6 °F 45.0 °F 100% 30.22 in 10.0 mi West 8.1 mph - 0.01 in   Mostly Cloudy
8:32 AM 46.4 °F 42.4 °F 46.4 °F 100% 30.23 in 9.0 mi West 8.1 mph - N/A   Mostly Cloudy
8:55 AM 46.9 °F - 45.0 °F 93% 30.25 in 10.0 mi West 11.5 mph - N/A   Overcast
9:55 AM 46.9 °F - 45.0 °F 93% 30.27 in 10.0 mi West 13.8 mph - N/A   Mostly Cloudy
10:11 AM 48.2 °F - 44.6 °F 87% 30.27 in 10.0 mi West 17.3 mph 21.9 mph N/A   Scattered Clouds
10:55 AM 48.9 °F - 42.1 °F 77% 30.29 in 10.0 mi West 17.3 mph 26.5 mph N/A   Mostly Cloudy
11:55 AM 48.9 °F - 41.0 °F 74% 30.32 in 9.0 mi West 15.0 mph - 0.00 in   Overcast
12:55 PM 48.9 °F - 39.9 °F 71% 30.31 in 8.0 mi West 15.0 mph 23.0 mph N/A   Mostly Cloudy
1:55 PM 46.9 °F - 39.9 °F 77% 30.32 in 9.0 mi West 13.8 mph 23.0 mph 0.00 in   Overcast
2:55 PM 48.0 °F - 39.0 °F 71% 30.32 in 10.0 mi West 17.3 mph 23.0 mph N/A   Overcast
3:55 PM 46.9 °F - 37.9 °F 71% 30.34 in 10.0 mi West 16.1 mph 24.2 mph N/A   Overcast
4:55 PM 46.9 °F - 39.0 °F 74% 30.35 in 10.0 mi West 10.4 mph - 0.00 in   Overcast
5:55 PM 44.1 °F 37.7 °F 39.0 °F 82% 30.35 in 10.0 mi West 12.7 mph - N/A   Scattered Clouds
6:55 PM 45.0 °F 39.3 °F 39.0 °F 80% 30.37 in 10.0 mi WNW 11.5 mph - N/A   Mostly Cloudy
7:55 PM 44.1 °F 38.1 °F 37.9 °F 79% 30.38 in 10.0 mi WNW 11.5 mph - 0.00 in   Mostly Cloudy
8:55 PM 44.1 °F 39.0 °F 37.9 °F 79% 30.39 in 9.0 mi WNW 9.2 mph - N/A   Overcast
9:55 PM 43.0 °F 36.8 °F 37.0 °F 80% 30.40 in 9.0 mi WNW 11.5 mph - 0.01 in   Overcast
10:55 PM 43.0 °F 40.3 °F 36.0 °F 76% 30.42 in 10.0 mi West 4.6 mph - N/A   Overcast
11:55 PM 42.1 °F 39.2 °F 37.0 °F 82% 30.43 in 10.0 mi NW 4.6 mph - 0.00 in   Overcast